Погода в Улытау

Казахстан     48˚39′17″N   67˚00′33″E
темп.,
°C
ветер,
м/с
пор.,
м/с
влажн.,
%
обл.,
%
осадки,
мм/ч
давл.,
гПа
погр.,
м
6 декабря, вс
вс600:00−23˚вюв469962 0.0 104173
03:00−22˚вюв339945 0.0 104037
06:00−23˚вюв339822 0.0 104131
09:00−23˚вюв34995 0.0 104140
12:00−20˚вюв45979 0.0 1042105
15:00−19˚вюв34960 0.0 1041106
18:00−22˚вюв33950 0.0 104128
21:00−22˚вюв34960 0.0 104140
7 декабря, пн
пн700:00−21˚юв33950 0.0 104026
03:00−21˚вюв22950 0.0 103920
06:00−20˚вюв33940 0.0 103923
09:00−20˚вюв22930 0.0 103820
12:00−15˚в22910 0.0 103855
15:00−14˚вюв22910 0.0 103749
18:00−16˚вюв22890 0.0 103820
21:00−16˚в12920 0.0 103920
8 декабря, вт
вт800:00−16˚всв12920 0.0 103920
03:00−15˚в11890 0.0 103820
06:00−15˚сз11866 0.0 103820
09:00−15˚сз11850 0.0 103920
12:00−11˚сз11790 0.0 104021
15:00−10˚зсз12765 0.0 103921
18:00−14˚з126824 0.0 104021
21:00−14˚зсз126631 0.0 104021
9 декабря, ср
ср900:00−14˚зюз116415 0.0 104121
03:00−13˚зюз22630 0.0 104121
06:00−13˚зюз23670 0.0 104022
09:00−14˚зюз33680 0.0 104024
12:00−11˚зюз34750 0.0 103984
15:00−11˚з45790 0.0 1038149
18:00−14˚з44790 0.0 103754
21:00−14˚з33790 0.0 103737
10 декабря, чт
чт1000:00−15˚з23810 0.0 103725
03:00−16˚зсз11860 0.0 103720
06:00−16˚сз11920 0.0 103720
09:00−15˚всв11920 0.0 103820
12:00−10˚вюв22890 0.0 103957
15:00−10˚вюв22920 0.0 103957
18:00−13˚вюв22940 0.0 104021
21:00−13˚вюв22950 0.0 104121